{"data":{"norad_id":64721,"epoch":"2026-05-25T05:12:38.127744Z","epoch_age_seconds":62914,"freshness":"FRESH","line1":"1 64721U 25142AB  26145.21710796  .00002443  00000+0  21244-3 0  9993","line2":"2 64721  70.0002 121.5050 0003409 265.9268  94.1501 14.98336308 50920","mean_motion":14.98336308,"eccentricity":0.0003409,"inclination_deg":70.0002,"raan_deg":121.505,"arg_perigee_deg":265.9268,"mean_anomaly_deg":94.1501,"bstar":0.00021244,"rev_number":5092,"period_min":96.106594514961,"perigee_km":569.66706993658,"apogee_km":574.40569814982,"semimajor_km":6950.1733840432,"source":"CELESTRAK","updated_at":"2026-05-25T13:38:20.518451Z"}}